This is the latest recevied weather packets stored in our database for station/object AG1T-1. If no packets are shown the sender has not sent any weather packets the latest 10 day(s).
| Time | Temp. | Humidity | Pressure | Rain* | Wind** | Luminosity | Snow |
|---|---|---|---|---|---|---|---|
| 1778098203 | 13.89° C | 34% | 1023.3 hPa | 0 mm | - | 898 W/m² | - |
| 1778097603 | 14.44° C | 32% | 1023.3 hPa | 0 mm | - | 904 W/m² | - |
| 1778097003 | 13.89° C | 35% | 1023.4 hPa | 0 mm | - | 907 W/m² | - |
| 1778096403 | 13.33° C | 35% | 1023.4 hPa | 0 mm | - | 909 W/m² | - |
| 1778095803 | 13.89° C | 35% | 1023.5 hPa | 0 mm | - | 911 W/m² | - |
| 1778095203 | 13.33° C | 34% | 1023.5 hPa | 0 mm | - | 911 W/m² | - |
| 1778094603 | 13.33° C | 36% | 1023.6 hPa | 0 mm | - | 909 W/m² | - |
| 1778094003 | 12.78° C | 39% | 1023.8 hPa | 0 mm | - | 902 W/m² | - |
| 1778093403 | 12.22° C | 38% | 1023.8 hPa | 0 mm | - | 900 W/m² | - |
| 1778092803 | 12.22° C | 37% | 1023.8 hPa | 0 mm | - | 896 W/m² | - |
| 1778092203 | 12.22° C | 36% | 1023.8 hPa | 0 mm | - | 889 W/m² | - |
| 1778091603 | 11.67° C | 39% | 1023.9 hPa | 0.25 mm | - | 879 W/m² | - |
| 1778091003 | 11.11° C | 38% | 1023.9 hPa | 0.25 mm | - | 867 W/m² | - |
| 1778090403 | 11.11° C | 40% | 1024 hPa | 0.25 mm | - | 854 W/m² | - |
| 1778089803 | 10° C | 41% | 1024.1 hPa | 0.25 mm | - | 844 W/m² | - |
| 1778089203 | 10° C | 41% | 1024.2 hPa | 0.51 mm | - | 826 W/m² | - |
| 1778088603 | 10° C | 42% | 1024.1 hPa | 0.51 mm | - | 814 W/m² | - |
| 1778088003 | 10° C | 43% | 1024 hPa | 0.25 mm | - | 798 W/m² | - |
| 1778087403 | 9.44° C | 46% | 1023.9 hPa | 0.25 mm | - | 777 W/m² | - |
| 1778086803 | 9.44° C | 48% | 1023.8 hPa | 0.51 mm | - | 759 W/m² | - |
| 1778086203 | 9.44° C | 48% | 1023.8 hPa | 0.51 mm | - | 740 W/m² | - |
| 1778085603 | 8.33° C | 47% | 1023.7 hPa | 0.51 mm | - | 717 W/m² | - |
| 1778085003 | 8.33° C | 50% | 1023.7 hPa | 0.51 mm | - | 696 W/m² | - |
| 1778084403 | 7.78° C | 52% | 1023.8 hPa | 0.51 mm | - | 673 W/m² | - |
| 1778083803 | 7.78° C | 53% | 1023.7 hPa | 0.76 mm | - | 649 W/m² | - |
* Rain latest hour (hover to see other rain measurements)
** Current wind speed in m/s (hover to see current wind gust speed)